Simultaneous Nadir Overpasses (SNOs) Predictions

Prediction of SNOs between GOES-14 and AQUA Satellite Orbit:

Table of predicted SNOs for the next 14.0 days since TLE Epoch: 12/21/2018
Index Date Time (GOES-14) GOES-14 Lat,Lon AQUA Lat,Lon Distance(km) Time Diff (sec)
1 12/23/2018 08:26:56 -0.01,-104.26 -0.25,-103.21 119.17 80
2 12/23/2018 20:48:19 0.02,-104.03 -0.92,-108.39 496.31 80
3 12/25/2018 08:14:45 -0.01,-104.26 -0.86,-100.25 455.28 80
4 12/25/2018 20:36:08 0.02,-104.03 -0.30,-105.43 159.90 80
5 12/27/2018 20:26:38 0.02,-104.03 0.37,-102.49 176.66 80
6 12/28/2018 08:47:54 -0.03,-104.27 0.66,-107.66 383.95 80
7 12/30/2018 08:35:43 -0.03,-104.28 0.04,-104.70 47.13 80
8 01/01/2019 08:20:53 -0.02,-104.29 -0.58,-101.74 289.97 80
9 01/01/2019 20:42:15 0.03,-104.05 -0.58,-106.92 326.92 80
10 01/03/2019 20:32:44 0.03,-104.05 0.04,-103.96 10.38 80




NCC Satellite Simultaneous Nadir Overpasses (SNOs) Prediction Service
